Regional Weather Roundup
Issued by NWS

Home | Current Version | Previous Version | Graphics & Text | Print | Product List | Glossary On
Versions: 1 2 3 4 5 6 7 8 9 10 11 12 13 14 15 16 17 18 19 20 21 22 23 24 25 26 27 28 29 30 31 32 33 34 35 36 37 38 39 40 41 42 43 44 45 46 47 48 49 50
656
ASUS43 KBIS 191510
RWRND

NORTH DAKOTA REGIONAL WEATHER ROUNDUP
NATIONAL WEATHER SERVICE BISMARCK ND
900 AM CST THU JAN 19 2017

NOTE: "FAIR" INDICATES FEW OR NO CLOUDS BELOW 12,000 FEET WITH NO
SIGNIFICANT WEATHER AND/OR OBSTRUCTIONS TO VISIBILITY.


NDZ001>003-009>011-017-191600-
NORTHWEST NORTH DAKOTA

CITY           SKY/WX    TMP DP  RH WIND       PRES   REMARKS
WILLISTON      FAIR      16  13  88 CALM      29.50R FOG
MINOT          FAIR      27  21  78 SW10      29.47F WCI  17
MINOT AFB      CLOUDY    24  19  83 SW9       29.47S WCI  14
$$

NDZ018>021-031>035-040>046-191600-
SOUTHWEST NORTH DAKOTA

CITY           SKY/WX    TMP DP  RH WIND       PRES   REMARKS
BISMARCK       FAIR      11   8  88 NE7       29.53F WCI   0
DICKINSON      FAIR      20  14  77 SW5       29.47S WCI  13
GARRISON         N/A     14  11  87 N6        29.49F WCI   5
HETTINGER ARPT CLOUDY    13   8  81 W5        29.50F WCI   5
$$

NDZ004>008-012>016-024-026-027-054-191600-
NORTHEAST NORTH DAKOTA

CITY           SKY/WX    TMP DP  RH WIND       PRES   REMARKS
GRAND FORKS    FOG       23  20  88 S17       29.59R VSB 1/8 WCI   9
GRND FRKS AFB  FOG       23  21  93 S12       29.58R VSB 3/4 WCI  12
DEVILS LAKE    FAIR      18  14  84 SE5       29.52F WCI  11
$$

NDZ022-023-025-028>030-036>039-047>053-191600-
SOUTHEAST NORTH DAKOTA

CITY           SKY/WX    TMP DP  RH WIND       PRES   REMARKS
FARGO          FOG       28  28 100 S7        29.62R VSB 3/4
JAMESTOWN      FAIR      16  14  92 S6        29.54F WCI   7
$$





USA.gov is the U.S. government's official web portal to all federal, state and local government web resources and services.